Time,TemperatureF,DewpointF,PressureIn,WindDirection,WindDirectionDegrees,WindSpeedMPH,WindSpeedGustMPH,Humidity,HourlyPrecipIn,Conditions,Clouds,dailyrainin,SoftwareType,DateUTC
2013-07-21 00:22:00,73.0,27.0,-100.00,NW,318,4.0,5.0,18,0.00,,,0.00,,2013-07-21 06:22:00,
2013-07-21 00:32:00,73.0,27.0,-100.00,NW,318,4.0,5.0,18,0.00,,,0.00,,2013-07-21 06:32:00,
2013-07-21 00:52:00,66.0,27.0,-100.00,SW,229,2.0,3.0,23,0.00,,,0.00,,2013-07-21 06:52:00,
2013-07-21 01:01:00,66.0,27.0,-100.00,SW,229,2.0,3.0,23,0.00,,,0.00,,2013-07-21 07:01:00,
2013-07-21 01:11:00,66.0,27.0,-100.00,SW,229,2.0,3.0,23,0.00,,,0.00,,2013-07-21 07:11:00,
2013-07-21 01:22:00,66.0,24.0,-100.00,West,261,3.0,4.0,20,0.00,,,0.00,,2013-07-21 07:22:00,
2013-07-21 01:32:00,66.0,24.0,-100.00,West,261,3.0,4.0,20,0.00,,,0.00,,2013-07-21 07:32:00,
2013-07-21 02:11:00,64.0,25.0,-100.00,WSW,246,2.0,3.0,22,0.00,,,0.00,,2013-07-21 08:11:00,
2013-07-21 02:22:00,64.0,25.0,-100.00,WSW,246,2.0,3.0,22,0.00,,,0.00,,2013-07-21 08:22:00,
2013-07-21 02:33:00,64.0,25.0,-100.00,WSW,246,2.0,3.0,22,0.00,,,0.00,,2013-07-21 08:33:00,
2013-07-21 03:22:00,67.0,21.0,-100.00,NW,323,4.0,7.0,18,0.00,,,0.00,,2013-07-21 09:22:00,
2013-07-21 03:32:00,67.0,21.0,-100.00,NW,323,4.0,7.0,18,0.00,,,0.00,,2013-07-21 09:32:00,
2013-07-21 04:22:00,63.0,23.0,-100.00,NW,309,4.0,6.0,21,0.00,,,0.00,,2013-07-21 10:22:00,
2013-07-21 04:32:00,63.0,23.0,-100.00,NW,309,4.0,6.0,21,0.00,,,0.00,,2013-07-21 10:32:00,
2013-07-21 04:52:00,62.0,23.0,-100.00,West,275,2.0,3.0,22,0.00,,,0.00,,2013-07-21 10:52:00,
2013-07-21 05:02:00,62.0,23.0,-100.00,West,275,2.0,3.0,22,0.00,,,0.00,,2013-07-21 11:02:00,
2013-07-21 05:32:00,67.0,22.0,-100.00,NW,308,7.0,9.0,18,0.00,,,0.00,,2013-07-21 11:32:00,
2013-07-21 05:52:00,61.0,23.0,-100.00,SSE,162,2.0,4.0,23,0.00,,,0.00,,2013-07-21 11:52:00,
2013-07-21 06:01:00,61.0,23.0,-100.00,SSE,162,2.0,4.0,23,0.00,,,0.00,,2013-07-21 12:01:00,
2013-07-21 06:22:00,62.0,24.0,-100.00,NW,320,8.0,9.0,23,0.00,,,0.00,,2013-07-21 12:22:00,
2013-07-21 06:32:00,62.0,24.0,-100.00,NW,320,8.0,9.0,23,0.00,,,0.00,,2013-07-21 12:32:00,
2013-07-21 06:53:00,60.0,24.0,-100.00,East,92,2.0,3.0,24,0.00,,,0.00,,2013-07-21 12:53:00,
2013-07-21 07:01:00,60.0,24.0,-100.00,East,92,2.0,3.0,24,0.00,,,0.00,,2013-07-21 13:01:00,
2013-07-21 07:11:00,60.0,24.0,-100.00,East,92,2.0,3.0,24,0.00,,,0.00,,2013-07-21 13:11:00,
2013-07-21 07:22:00,59.0,26.0,-100.00,East,80,2.0,4.0,28,0.00,,,0.00,,2013-07-21 13:22:00,
2013-07-21 07:32:00,59.0,26.0,-100.00,East,80,2.0,4.0,28,0.00,,,0.00,,2013-07-21 13:32:00,
2013-07-21 07:52:00,64.0,30.0,-100.00,SE,145,2.0,3.0,27,0.00,,,0.00,,2013-07-21 13:52:00,
2013-07-21 08:22:00,67.0,30.0,-100.00,North,3,4.0,6.0,26,0.00,,,0.00,,2013-07-21 14:22:00,
2013-07-21 08:32:00,67.0,30.0,-100.00,North,3,4.0,6.0,26,0.00,,,0.00,,2013-07-21 14:32:00,
2013-07-21 09:53:00,75.0,33.0,-100.00,North,4,2.0,3.0,21,0.00,,,0.00,,2013-07-21 15:53:00,
2013-07-21 10:32:00,78.0,32.0,-100.00,West,277,10.0,11.0,19,0.00,,,0.00,,2013-07-21 16:32:00,
2013-07-21 10:52:00,79.0,30.0,-100.00,West,267,11.0,13.0,17,0.00,,,0.00,,2013-07-21 16:52:00,
2013-07-21 11:02:00,79.0,30.0,-100.00,West,267,11.0,13.0,17,0.00,,,0.00,,2013-07-21 17:02:00,
2013-07-21 11:11:00,79.0,30.0,-100.00,West,267,11.0,13.0,17,0.00,,,0.00,,2013-07-21 17:11:00,
2013-07-21 11:22:00,80.0,31.0,-100.00,WSW,250,11.0,14.0,17,0.00,,,0.00,,2013-07-21 17:22:00,
2013-07-21 11:33:00,80.0,31.0,-100.00,WSW,250,11.0,14.0,17,0.00,,,0.00,,2013-07-21 17:33:00,
2013-07-21 11:53:00,82.0,26.0,-100.00,West,267,11.0,14.0,13,0.00,,,0.00,,2013-07-21 17:53:00,
2013-07-21 12:01:00,82.0,26.0,-100.00,West,267,11.0,14.0,13,0.00,,,0.00,,2013-07-21 18:01:00,
2013-07-21 12:32:00,84.0,23.0,-100.00,WSW,258,14.0,20.0,11,0.00,,,0.00,,2013-07-21 18:32:00,
2013-07-21 12:52:00,85.0,19.0,-100.00,WSW,251,19.0,25.0,8,0.00,,,0.00,,2013-07-21 18:52:00,
2013-07-21 13:01:00,85.0,19.0,-100.00,WSW,251,19.0,25.0,8,0.00,,,0.00,,2013-07-21 19:01:00,
2013-07-21 13:11:00,85.0,19.0,-100.00,WSW,251,19.0,25.0,8,0.00,,,0.00,,2013-07-21 19:11:00,
2013-07-21 13:22:00,86.0,11.0,-100.00,West,265,19.0,27.0,6,0.00,,,0.00,,2013-07-21 19:22:00,
2013-07-21 13:32:00,86.0,11.0,-100.00,West,265,19.0,27.0,6,0.00,,,0.00,,2013-07-21 19:32:00,
2013-07-21 13:52:00,87.0,18.0,-100.00,West,265,18.0,24.0,8,0.00,,,0.00,,2013-07-21 19:52:00,
2013-07-21 14:01:00,87.0,18.0,-100.00,West,265,18.0,24.0,8,0.00,,,0.00,,2013-07-21 20:01:00,
2013-07-21 14:11:00,87.0,18.0,-100.00,West,265,18.0,24.0,8,0.00,,,0.00,,2013-07-21 20:11:00,
2013-07-21 14:22:00,87.0,18.0,-100.00,West,267,19.0,26.0,8,0.00,,,0.00,,2013-07-21 20:22:00,
2013-07-21 14:32:00,87.0,18.0,-100.00,West,267,19.0,26.0,8,0.00,,,0.00,,2013-07-21 20:32:00,
2013-07-21 14:52:00,89.0,19.0,-100.00,WNW,287,16.0,22.0,8,0.00,,,0.00,,2013-07-21 20:52:00,
2013-07-21 15:01:00,89.0,19.0,-100.00,WNW,287,16.0,22.0,8,0.00,,,0.00,,2013-07-21 21:01:00,
2013-07-21 15:11:00,88.0,15.0,-100.00,West,268,18.0,25.0,7,0.00,,,0.00,,2013-07-21 21:11:00,
2013-07-21 15:22:00,88.0,15.0,-100.00,West,268,18.0,25.0,7,0.00,,,0.00,,2013-07-21 21:22:00,
2013-07-21 15:32:00,88.0,15.0,-100.00,West,268,18.0,25.0,7,0.00,,,0.00,,2013-07-21 21:32:00,
2013-07-21 15:43:00,88.0,14.0,-100.00,WNW,287,19.0,25.0,6,0.00,,,0.00,,2013-07-21 21:43:00,
2013-07-21 15:52:00,88.0,14.0,-100.00,WNW,287,19.0,25.0,6,0.00,,,0.00,,2013-07-21 21:52:00,
2013-07-21 16:01:00,88.0,14.0,-100.00,WNW,287,19.0,25.0,6,0.00,,,0.00,,2013-07-21 22:01:00,
2013-07-21 16:11:00,88.0,14.0,-100.00,WNW,287,19.0,25.0,6,0.00,,,0.00,,2013-07-21 22:11:00,
2013-07-21 18:22:00,89.0,15.0,-100.00,West,275,12.0,16.0,6,0.00,,,0.00,,2013-07-22 00:22:00,
2013-07-21 18:32:00,89.0,15.0,-100.00,West,275,12.0,16.0,6,0.00,,,0.00,,2013-07-22 00:32:00,
2013-07-21 18:42:00,87.0,15.0,-100.00,West,261,14.0,17.0,7,0.00,,,0.00,,2013-07-22 00:42:00,
2013-07-21 18:53:00,87.0,15.0,-100.00,West,261,14.0,17.0,7,0.00,,,0.00,,2013-07-22 00:53:00,
2013-07-21 19:01:00,87.0,15.0,-100.00,West,261,14.0,17.0,7,0.00,,,0.00,,2013-07-22 01:01:00,
2013-07-21 19:11:00,87.0,15.0,-100.00,West,261,14.0,17.0,7,0.00,,,0.00,,2013-07-22 01:11:00,
2013-07-21 19:22:00,87.0,18.0,-100.00,WNW,294,12.0,15.0,8,0.00,,,0.00,,2013-07-22 01:22:00,
2013-07-21 19:52:00,87.0,16.0,-100.00,WSW,258,16.0,20.0,7,0.00,,,0.00,,2013-07-22 01:52:00,
2013-07-21 20:01:00,87.0,16.0,-100.00,WSW,258,16.0,20.0,7,0.00,,,0.00,,2013-07-22 02:01:00,
2013-07-21 20:11:00,87.0,16.0,-100.00,WSW,258,16.0,20.0,7,0.00,,,0.00,,2013-07-22 02:11:00,
2013-07-21 20:22:00,85.0,16.0,-100.00,West,265,16.0,19.0,7,0.00,,,0.00,,2013-07-22 02:22:00,
2013-07-21 20:32:00,85.0,16.0,-100.00,West,265,16.0,19.0,7,0.00,,,0.00,,2013-07-22 02:32:00,
2013-07-21 20:52:00,83.0,14.0,-100.00,West,264,13.0,15.0,7,0.00,,,0.00,,2013-07-22 02:52:00,
2013-07-21 21:01:00,83.0,14.0,-100.00,West,264,13.0,15.0,7,0.00,,,0.00,,2013-07-22 03:01:00,
2013-07-21 21:22:00,80.0,13.0,-100.00,West,270,13.0,15.0,8,0.00,,,0.00,,2013-07-22 03:22:00,
2013-07-21 21:53:00,78.0,13.0,-100.00,West,271,13.0,14.0,8,0.00,,,0.00,,2013-07-22 03:53:00,
2013-07-21 22:01:00,78.0,13.0,-100.00,West,271,13.0,14.0,8,0.00,,,0.00,,2013-07-22 04:01:00,
2013-07-21 23:32:00,66.0,11.0,-100.00,SSW,213,1.0,2.0,11,0.00,,,0.00,,2013-07-22 05:32:00,
2013-07-21 23:42:00,66.0,11.0,-100.00,SSW,213,1.0,2.0,11,0.00,,,0.00,,2013-07-22 05:42:00,